SBIRS GEO-3 (USA 282)

Last updated on Mon Oct 14 2024 00:02:40 GMT+0000 (Coordinated Universal Time)

1 43162U 18009A 24287.34919227 .00000125 00000+0 00000+0 0 9990 2 43162 2.2429 340.5985 0002027 224.0746 144.0575 1.00272049 24712
UTC large
Height (km)
Speed (km/s)
/
Latitude / Longitude
Inclination (degrees)
Orbital Period (minutes)
Azimuth
Elevation
Range (km)
Doppler Factor

Next 0 passes for location: London (51.5072 / 0.1276)

Sorry there are no passes over London.